Location: Commenchon
(49.6411°N, 3.1571°E)
Time: 12:01:16
(UTC+00:00)

Cosmos 2322 Rocket - Pass Details

Date: 15 May 2026
Orbit: 831 x 850 km, 71.0° (Epoch: 5 June)

Event Time Altitude Azimuth Distance (km) Brightness Sun altitude
Rises 22:17:16 0° 324° (NW) 3,408 6.8 -18.7°
Reaches altitude 10° 22:19:59 10° 313° (NW) 2,472 5.6 -18.8°
Maximum altitude 22:24:46 29° 256° (WSW) 1,509 3.5 -19.1°
Enters shadow 22:27:38 19° 212° (SSW) 1,907 3.7 -19.3°
